This demonstration page uses our WeatherBlox Daily Observations layout. Learn more.

Left ArrowRight Arrow

Hourly Observations for September 13, 2021

Temp ( °F °C ) Dew Point ( °F °C ) Humidity (%) Winds ( mph kmh ) Pressure ( in mb ) Visibility ( mi km ) Precip ( " mm )
12:53 am 00:53 Clear 65 18.3 63 17.2 93 93 ENE 5 7 29.98 1015 10 16 0.00 0.00
1:53 am 01:53 Clear 63 17.2 62 16.7 97 97 ENE 6 9 29.96 1015 7 11 0.00 0.00
2:53 am 02:53 Mostly Clear with Mist and Fog 64 17.8 62 16.7 93 93 ENE 5 7 29.94 1014 6 10 0.00 0.00
3:11 am 03:11 Mostly Cloudy with Mist and Fog 64 17.8 62 16.7 93 93 NE 7 11 29.92 1013 5 8 0.00 0.00
3:53 am 03:53 Cloudy with Mist and Fog 64 17.8 62 16.7 93 93 ENE 7 11 29.91 1013 5 8 0.00 0.00
4:53 am 04:53 Cloudy with Mist and Fog 64 17.8 62 16.7 93 93 N 3 6 29.92 1013 6 10 0.00 0.00
5:16 am 05:16 Cloudy with Mist and Fog 64 17.8 63 17.2 96 96 NNE 5 7 29.91 1013 2 3 0.00 0.00
5:33 am 05:33 Mostly Cloudy with Fog 63 17.2 62 16.7 97 97 NNE 6 9 29.91 1013 0 0 0.00 0.00
5:53 am 05:53 Mostly Cloudy with Fog 63 17.2 62 16.7 97 97 NE 5 7 29.90 1013 0 0 0.00 0.00
6:24 am 06:24 Mostly Cloudy with Fog 63 17 63 17 100 100 N 8 13 29.90 1012 1 1 0.00 0.00
6:53 am 06:53 Mostly Cloudy with Fog 63 17.2 62 16.7 97 97 NNE 5 7 29.89 1012 1 1 0.00 0.00
7:29 am 07:29 Mostly Cloudy with Fog 63 17.2 62 16.7 97 97 Calm 29.90 1012 0 0 0.00 0.00
7:53 am 07:53 Mostly Cloudy with Fog 63 17.2 62 16.7 97 97 S 5 7 29.91 1013 0 0 0.00 0.00
8:53 am 08:53 Mostly Cloudy with Fog 63 17.2 63 17.2 100 100 WSW 6 9 29.92 1013 0 0 0.00 0.00
9:02 am 09:02 Mostly Cloudy with Fog 64 17.8 63 17.2 96 96 W 5 7 29.90 1013 1 1 0.00 0.00
9:16 am 09:16 Cloudy with Mist and Fog 64 17.8 63 17.2 96 96 W 6 9 29.90 1013 1 2 0.00 0.00
9:32 am 09:32 Cloudy with Mist and Fog 64 17.8 63 17.2 96 96 W 5 7 29.90 1013 3 5 0.00 0.00
9:53 am 09:53 Mostly Cloudy with Mist and Fog 66 18.9 64 17.8 93 93 NW 5 7 29.91 1013 5 8 0.00 0.00
10:13 am 10:13 Mostly Sunny 67 19.4 65 18.3 93 93 VRB 3 6 29.87 1012 7 11 0.00 0.00
10:53 am 10:53 Sunny 73 22.8 65 18.3 76 76 Calm 29.89 1012 8 13 0.00 0.00
11:53 am 11:53 Sunny 78 25.6 66 18.9 67 67 SE 3 6 29.86 1011 10 16 0.00 0.00
12:53 pm 12:53 Sunny 85 29.4 64 17.8 50 50 VRB 3 6 29.82 1010 10 16 0.00 0.00
1:53 pm 13:53 Sunny 89 31.7 63 17.2 42 42 S 6 9 29.79 1009 10 16 0.00 0.00
2:53 pm 14:53 Sunny 90 32.2 63 17.2 41 41 S 8 13 29.76 1008 10 16 0.00 0.00
3:53 pm 15:53 Sunny 91 32.8 62 16.7 38 38 VRB 7 11 29.77 1008 10 16 0.00 0.00
4:53 pm 16:53 Sunny 90 32.2 62 16.7 39 39 S 6 9 29.75 1007 10 16 0.00 0.00
5:53 pm 17:53 Sunny 80 26.7 67 19.4 64 64 N 17 28 29.76 1008 10 16 0.00 0.00
6:53 pm 18:53 Sunny 78 25.6 67 19.4 69 69 NE 10 17 29.75 1008 10 16 0.00 0.00
7:53 pm 19:53 Clear 75 23.9 67 19.4 76 76 N 9 15 29.77 1008 10 16 0.00 0.00
8:53 pm 20:53 Clear 73 22.8 67 19.4 81 81 N 6 9 29.79 1009 10 16 0.00 0.00
9:53 pm 21:53 Clear 71 21.7 67 19.4 87 87 NNW 7 11 29.83 1010 10 16 0.00 0.00
10:53 pm 22:53 Clear 69 20.6 66 18.9 90 90 NNW 5 7 29.83 1010 10 16 0.00 0.00
11:53 pm 23:53 Clear 68 20 65 18.3 90 90 W 3 6 29.86 1011 10 16 0.00 0.00

Powered by AerisWeather